User: anonymous   Login
Location: Carrières
(48.9495°N, 2.0407°E)
Time: 17:37:53
(UTC+00:00)
Language:

Altair - Orbit

View from above orbital plane
View from above orbital plane
View from above satellite
View from above satellite

Ground track
Ground track

The orbit data is extracted from the following two-line orbital elements,

1    50U 60009B   24114.34264495 -.00000100  00000-0 -14691-3 0  9996
2    50  47.2316  77.7947 0113225 196.1429 163.5738 12.20139374842321
Epoch (UTC): 23 April 2024 08:13:24
Eccentricity: 0.0113225
inclination: 47.2316°
perigee height: 1501 km
apogee height: 1682 km
right ascension of ascending node: 77.7947°
argument of perigee: 196.1429°
revolutions per day: 12.20139374
mean anomaly at epoch: 163.5738°
orbit number at epoch: 84232

The dashed part of the orbit path shows where the satellite is in the earth's shadow,  

DLR